Flag for U.S.A. Weather past 2 weeks in Barrow, Alaska, U.S.A.

Now
37 °F

Overcast.


Feels Like: 30 °F
Forecast: 36 / 44 °F
Wind: 10 mph from West

Location: Post Rogers Memorial Airport

Current Time: Aug 31, 2015 at 10:46:17 PM

Latest Report: Aug 31, 2015 at 9:53 PM


Visibility: 10 mi

Pressure: 30.01 "Hg

Humidity: 82%

Dew point: 32 °F

Location of BarrowLocation

Historic Weather in Barrow — Graph

°F

Barrow temperature yesterday

Maximum temperature yesterday: 39 °F (at 10:53 AM)
Minimum temperature yesterday: 32 °F (at 10:53 PM)
Average temperature yesterday: 36 °F

Past Weeks' High & Low Weather Summary

 TemperatureHumidityPressure
High52 °F (Aug 25, 5:53 PM)100% (Aug 20, 11:53 PM)30.18 "Hg (Aug 20, 11:53 PM)
Low27 °F (Aug 19, 11:53 PM)63% (Aug 20, 12:53 PM)29.30 "Hg (Aug 29, 6:53 AM)
Average36 °F89%29.82 "Hg
* Reported Aug 16 9:53 PM — Aug 31 9:53 PM, Barrow, Weather by CustomWeather, © 2015

Note: Actual official high and low records may vary slightly from our data, if they occured in-between our weather recording intervals... More about our weather records

Advertising

Barrow weather history for previous 24 hours

 ConditionsComfort  
Time TempWeatherWind HumidityBarometerVisibility
9:53 PM
Mon, Aug 31
37 °FOvercast.10 mph82%30.01 "Hg10 mi
8:53 PM37 °FOvercast.12 mph82%30.01 "Hg10 mi
6:53 PM37 °FMore clouds than sun.9 mph82%30.00 "Hg10 mi
5:53 PM35 °FMostly cloudy.9 mph88%29.99 "Hg7 mi
4:53 PM36 °FLight snow. Overcast.13 mph85%29.98 "Hg9 mi
3:53 PM37 °FOvercast.13 mph79%29.97 "Hg10 mi
2:53 PM37 °FPartly sunny.13 mph76%29.96 "Hg10 mi
1:53 PM36 °FBroken clouds.15 mph79%29.94 "Hg10 mi
12:53 PM35 °FBroken clouds.14 mph85%29.93 "Hg10 mi
11:53 AM34 °FFog.13 mph88%29.92 "Hg5 mi
10:53 AM34 °FCloudy.13 mph85%29.91 "Hg9 mi
9:53 AM34 °FOvercast.16 mph85%29.90 "Hg10 mi
8:58 AM33 °FOvercast.13 mph88%29.88 "Hg10 mi
7:53 AM33 °FLow clouds.13 mph88%29.87 "Hg10 mi
6:53 AM32 °FLow clouds.15 mph88%29.85 "Hg10 mi
5:53 AM33 °FLow clouds.14 mph88%29.84 "Hg10 mi
4:53 AM33 °FLow clouds.13 mph88%29.83 "Hg9 mi
3:53 AM33 °FLow clouds.10 mph88%29.82 "Hg10 mi
2:53 AM33 °FLow clouds.13 mph92%29.80 "Hg10 mi
1:53 AM32 °FLow clouds.9 mph92%29.79 "Hg10 mi
12:53 AM33 °FLow clouds.10 mph92%29.77 "Hg10 mi
11:53 PM
Sun, Aug 30
32 °FLow clouds.7 mph92%29.77 "Hg10 mi
10:53 PM32 °FLow clouds.9 mph96%29.76 "Hg10 mi
Weather by CustomWeather, © 2015

See weather overviewHow to use our weather pages